Temperature
27 29 29 28 28 28 26 25 24 23 21 20 19 19 18 18 17 17 17 16 15 14 13 13 13 12 12 12 11 11 11 11 10 10 10 10 10 10 10 10 10 10 10 10
26 28 28 27 26 26 25 24 23 23 22 20 20 19 18 18 17 17 16 16 15 14 14 13 13 12 12 12 11 11 11 11 11 10 10 10 10 10 10 10 9 9 9 10
25 27 27 25 23 23 23 23 22 21 21 20 19 18 18 17 17 17 16 15 14 14 13 13 12 12 12 11 11 11 11 10 10 10 10 10 10 10 10 9 9 9 9 9
25 26 24 22 23 22 22 22 22 21 20 19 18 18 17 17 17 15 15 14 14 13 13 12 12 12 11 11 11 11 10 10 10 10 10 10 10 10 9 9 9 9 9 9
25 25 23 22 21 21 20 20 20 19 18 18 17 17 17 17 15 15 14 14 13 13 12 12 12 11 11 11 10 10 10 10 10 10 10 9 9 9 9 9 9 9 9 9
24 23 23 21 22 21 21 20 18 18 17 17 16 16 16 15 14 14 13 13 12 12 12 12 11 11 11 10 10 10 10 10 9 9 9 9 9 9 9 8 8 8 8 9
24 23 23 21 21 21 19 18 17 17 16 16 16 15 15 14 14 13 13 12 12 12 11 11 11 10 10 10 10 9 9 9 9 9 9 9 8 8 8 8 8 8 8 8
23 22 21 20 20 19 18 17 17 16 16 15 15 14 14 14 13 13 12 12 12 11 11 10 10 10 9 9 9 9 8 8 8 8 8 8 8 8 8 8 8 8 8 8
22 21 21 20 19 18 17 17 16 15 15 15 14 14 13 13 13 12 12 11 11 10 10 9 9 9 8 8 8 8 7 7 7 7 7 7 7 7 8 8 8 8 8 8
21 22 21 20 19 17 16 16 15 15 14 14 14 13 13 13 12 12 11 10 10 9 9 8 8 7 7 7 7 6 6 6 6 6 6 6 7 7 7 7 8 8 8 8
21 21 19 19 17 16 16 15 15 14 14 14 13 13 13 12 11 11 10 9 9 8 7 7 7 6 6 6 6 6 5 5 5 6 6 6 6 6 7 7 7 8 8 8
19 18 18 17 16 16 15 15 14 14 14 13 13 13 12 11 10 10 9 8 7 7 6 6 6 5 5 5 5 5 5 5 5 5 5 5 6 6 6 7 7 7 7 8
18 17 16 16 15 15 15 14 14 14 13 13 12 12 11 10 9 8 8 7 6 6 5 5 5 5 5 4 4 4 4 4 4 5 5 5 5 5 6 6 7 7 7 7
17 16 16 15 15 14 14 14 14 13 13 12 11 11 10 9 8 7 6 6 5 5 4 4 4 4 4 4 4 4 4 4 4 4 5 5 5 5 5 6 6 7 7 7
16 16 15 15 14 14 13 13 13 12 12 11 10 10 9 8 7 6 6 5 5 4 4 4 4 4 4 4 4 4 4 4 5 5 5 5 5 5 5 6 6 6 7 7
16 15 15 14 14 13 13 13 12 12 11 10 9 8 8 7 6 5 5 4 4 4 4 4 4 5 5 4 4 4 5 5 5 5 5 5 5 5 5 6 6 6 6 7
15 15 14 14 13 13 12 12 11 11 10 9 8 8 7 6 6 5 4 4 4 4 4 4 5 5 5 5 5 5 5 5 5 5 5 5 5 5 5 6 6 6 6 7
15 14 14 13 13 12 12 11 11 10 9 8 8 7 6 6 5 4 4 4 4 4 4 4 5 5 5 5 5 5 5 5 5 5 5 5 5 5 6 6 6 6 6 6
15 14 13 13 12 12 11 11 10 9 8 8 7 6 6 5 5 4 4 4 4 4 4 4 5 5 5 5 5 5 5 5 5 5 5 5 5 6 6 6 6 6 6 6
14 14 13 12 12 11 10 10 9 9 8 7 6 6 5 5 4 4 4 4 4 4 4 5 5 5 5 5 5 5 5 6 6 6 6 6 6 6 6 6 6 6 6 6
13 13 12 11 11 10 10 9 9 8 8 7 6 6 5 5 4 4 4 4 4 4 5 5 5 5 5 6 6 6 6 6 6 6 6 6 6 6 6 6 6 6 6 7
13 12 11 11 10 10 9 9 9 8 7 6 6 5 5 5 4 5 5 4 4 5 5 5 5 6 6 6 6 6 6 6 6 6 6 6 6 7 7 7 7 7 7 7
12 11 11 10 10 10 10 9 9 8 7 6 6 5 5 4 4 4 4 5 5 5 5 6 6 6 7 7 7 7 7 7 7 7 7 7 7 7 7 7 7 7 7 8
11 11 10 10 10 10 10 9 8 7 7 6 6 5 5 4 4 5 5 5 5 5 6 6 6 7 7 7 7 8 8 7 7 7 7 7 8 8 8 8 8 8 8 8
11 11 11 10 10 10 9 9 8 7 7 6 6 5 5 4 4 4 5 5 5 6 6 7 7 7 7 8 8 8 8 8 8 8 8 8 8 8 8 8 9 9 9 9
11 11 11 10 10 9 9 8 8 7 7 6 5 5 4 4 4 4 5 5 6 6 6 7 7 7 8 8 8 9 9 9 9 9 9 9 9 9 9 9 9 10 10 10
12 12 11 11 10 9 9 8 8 7 6 5 5 5 4 4 4 4 5 5 6 6 6 7 7 7 8 8 8 9 9 9 9 10 10 10 10 10 10 10 10 10 10 11
Wind_Speed
16 18 16 13 10 9 9 10 10 12 8 4 3 7 9 11 13 15 17 16 12 10 10 10 10 10 10 11 10 10 10 11 11 11 11 11 11 11 11 11 12 9 9 10
17 17 13 8 9 9 9 10 12 14 10 4 6 9 12 15 18 21 19 14 12 12 11 10 10 10 10 9 9 9 10 11 10 11 11 11 12 12 11 11 11 10 9 9
15 15 13 5 11 10 10 10 12 14 11 10 11 14 16 18 21 19 14 14 15 15 12 10 11 10 10 10 9 10 10 11 10 11 11 11 13 12 11 11 11 10 10 9
13 13 8 7 8 9 10 11 14 12 11 12 16 18 19 19 15 16 19 20 18 16 15 13 12 11 10 12 11 11 11 11 11 11 11 10 10 10 10 9 10 9 10 10
7 12 3 5 7 9 11 14 11 11 15 19 21 21 19 16 19 20 20 18 16 17 18 14 13 13 12 13 13 13 13 12 11 11 11 10 10 9 9 9 9 9 10 10
10 12 10 5 7 10 13 8 12 16 19 21 23 21 18 20 22 20 18 17 17 19 18 14 12 11 13 16 15 14 13 12 11 10 11 11 10 10 10 9 9 10 11 10
10 11 4 7 12 15 12 11 17 19 20 21 21 20 21 23 22 20 18 18 17 16 14 12 12 12 14 15 15 14 13 12 11 11 11 11 11 10 10 10 10 10 10 10
8 10 5 10 12 11 11 14 17 19 21 22 22 23 23 23 21 21 21 20 20 14 13 11 11 12 13 13 13 13 13 13 12 11 14 15 10 9 9 9 10 10 10 11
6 7 7 8 9 11 13 16 18 21 22 23 24 25 25 23 21 21 21 19 18 18 16 13 12 12 16 15 14 14 14 14 13 14 12 12 11 11 11 10 11 11 9 9
7 8 9 10 12 15 17 18 20 21 23 23 24 25 25 22 20 19 19 18 18 19 18 16 15 15 15 15 14 14 15 14 13 14 14 12 10 11 11 11 10 8 8 7
10 10 11 12 16 17 19 20 21 22 23 24 25 25 23 20 19 19 20 19 18 17 18 19 17 16 17 16 15 16 15 15 14 13 13 12 11 10 11 10 9 8 7 5
8 10 12 15 17 19 20 21 22 23 23 24 23 23 23 22 20 20 20 20 20 21 21 20 20 19 18 17 16 16 14 14 12 11 10 10 10 11 13 13 12 11 9 6
7 11 13 16 17 18 19 22 23 23 23 24 22 22 22 22 21 21 21 22 21 21 22 22 21 20 19 17 16 15 15 14 11 11 10 10 10 10 10 9 11 11 11 10
8 11 14 15 17 18 20 22 23 23 22 22 22 22 22 22 22 22 22 22 22 22 22 22 21 21 19 18 16 16 14 15 13 11 10 10 10 10 9 9 7 6 8 11
10 12 14 16 17 19 20 22 23 22 22 22 21 21 22 22 22 23 22 22 21 22 22 22 21 20 18 17 16 15 13 11 10 10 10 10 9 10 9 9 7 6 5 7
12 13 14 16 18 20 21 22 22 22 22 23 22 22 22 22 22 22 22 22 22 23 22 21 20 19 17 16 14 12 11 14 12 9 8 8 9 9 8 7 7 7 7 7
12 13 15 17 18 20 21 21 21 21 22 23 23 23 23 23 23 22 23 22 21 21 20 19 18 18 17 15 13 10 9 9 11 9 7 7 8 8 7 7 7 7 6 8
10 12 13 15 17 19 20 20 20 21 21 22 22 23 23 23 23 23 23 23 21 20 18 18 18 18 16 14 11 8 7 6 5 6 6 6 6 6 6 6 7 7 6 8
10 12 14 15 16 17 18 19 19 20 20 20 21 22 21 21 21 21 22 21 20 19 19 20 22 18 14 13 12 7 6 5 4 4 4 5 5 5 5 6 6 7 8 9
10 12 13 15 16 16 17 18 19 19 19 20 20 21 21 22 21 22 21 18 15 15 19 21 19 14 12 11 13 7 6 4 3 3 4 4 5 5 6 6 6 7 8 10
10 12 13 14 15 16 16 17 17 18 19 20 20 21 21 21 21 20 18 17 17 19 21 20 14 12 12 13 12 7 5 3 2 1 2 3 4 5 5 6 6 7 8 9
9 10 12 14 14 15 15 15 16 18 19 19 20 20 20 20 21 19 17 14 17 21 18 13 13 15 17 15 8 6 4 3 1 0 1 2 3 4 5 6 7 8 8 9
8 9 11 12 13 15 15 14 16 16 18 19 18 19 19 18 15 16 17 16 17 21 17 13 17 21 20 11 7 5 4 2 1 1 1 2 3 4 6 8 8 8 9 9
7 9 10 11 12 13 14 15 15 14 17 16 17 17 16 15 15 14 14 18 21 21 15 15 19 21 17 8 7 5 3 2 1 1 2 2 4 5 6 7 8 9 9 10
7 8 9 9 10 10 12 13 14 14 16 15 18 18 16 13 14 15 16 18 21 19 15 16 18 19 13 10 8 7 5 5 4 2 3 3 5 6 6 7 8 8 8 9
6 7 6 7 7 7 10 11 12 12 13 15 15 15 15 14 16 15 15 17 20 18 15 13 14 14 12 12 11 9 8 6 5 3 3 4 5 6 6 7 8 8 8 8
6 4 3 5 7 8 9 10 11 12 12 14 15 14 15 15 16 17 17 16 16 15 14 13 13 13 12 12 11 10 9 7 6 4 3 3 4 4 6 8 7 7 7 8
Wind_Direction
309 307 310 311 323 339 351 349 335 339 352 38 20 338 328 323 319 314 310 307 306 303 293 283 279 275 275 272 269 267 267 265 262 262 262 261 263 264 265 268 274 277 285 294
306 307 312 327 14 10 1 350 338 329 336 27 345 333 329 326 321 312 310 317 318 309 301 298 296 294 291 287 282 276 272 272 270 266 265 263 261 260 260 261 264 266 271 282
306 310 309 21 30 13 354 345 338 325 335 350 337 331 326 323 312 314 333 330 318 312 310 308 305 298 294 293 290 285 281 281 278 275 271 266 269 267 262 263 267 270 272 276
304 313 327 70 40 14 344 334 336 336 351 344 328 324 320 312 325 340 329 320 317 314 311 304 302 298 294 294 289 286 283 283 282 281 281 278 275 273 272 273 275 277 277 276
319 330 1 102 35 4 338 324 18 2 339 329 327 318 311 328 337 326 318 315 313 311 307 303 299 295 292 291 289 286 284 281 281 280 281 280 280 279 280 278 279 276 275 269
314 321 333 57 18 343 319 304 20 345 333 328 323 317 318 327 319 314 315 314 309 305 303 299 297 295 291 291 287 284 283 279 278 276 277 277 276 277 279 277 275 274 270 267
329 318 29 27 353 342 324 333 340 330 325 322 320 313 312 315 316 316 313 310 307 304 302 299 298 293 290 290 287 285 283 279 275 273 272 271 267 266 267 270 273 275 275 272
334 320 10 5 353 351 325 324 324 324 323 319 315 313 315 315 315 314 312 310 310 307 302 299 300 299 296 293 293 292 290 287 283 279 279 280 275 272 269 267 269 268 265 265
327 319 346 354 342 340 338 330 326 323 320 318 317 316 315 314 313 313 313 314 315 313 309 307 306 303 300 299 298 295 290 286 283 283 280 277 274 272 270 263 260 263 261 260
315 318 340 342 346 344 337 328 323 321 320 319 316 314 314 314 315 315 317 319 317 314 311 309 308 304 299 297 294 289 286 285 283 280 276 272 267 266 264 262 260 258 258 259
313 348 343 338 343 335 328 326 323 321 319 317 316 315 317 318 320 321 320 319 319 316 312 309 307 304 301 298 293 289 286 284 281 276 274 271 266 260 258 257 253 250 256 251
330 343 326 326 332 328 328 325 323 322 320 319 320 321 323 323 323 321 322 322 319 316 313 311 308 304 301 297 294 288 285 282 277 272 270 269 267 269 256 248 250 239 230 230
334 331 324 323 324 329 325 325 324 323 323 325 327 327 326 325 324 325 323 321 318 315 312 308 305 302 300 298 293 285 279 277 273 269 265 263 260 260 264 254 239 229 220 211
337 332 324 324 326 327 327 325 324 325 327 329 329 330 329 327 326 324 322 319 316 312 309 306 304 301 300 297 292 285 279 275 269 263 259 256 252 250 251 251 243 230 219 207
337 330 322 324 326 328 328 327 328 329 330 332 333 333 332 329 326 322 320 318 316 312 310 308 305 303 301 296 292 287 281 272 265 260 253 251 248 246 245 245 239 229 206 190
326 324 326 328 329 329 330 332 331 331 333 334 334 334 333 328 323 322 321 321 318 315 314 311 306 306 306 301 295 287 277 269 264 257 248 245 241 239 236 232 225 218 207 184
325 326 330 330 330 331 332 332 332 333 334 335 336 335 331 328 326 326 325 323 319 315 313 313 313 315 313 307 302 294 282 271 262 254 243 239 236 233 224 214 212 209 203 177
324 324 330 331 331 331 332 333 334 336 337 336 336 334 332 331 330 328 326 324 322 320 322 324 323 323 318 315 310 302 290 271 256 250 243 233 228 220 209 206 205 201 174 160
326 332 335 335 334 334 334 334 337 337 338 338 338 335 332 331 330 328 326 326 326 328 330 329 324 324 323 325 322 308 302 287 270 251 230 213 214 208 196 197 197 186 166 161
331 335 336 335 337 337 336 338 337 337 340 340 339 335 333 333 332 331 330 327 327 330 329 326 326 327 330 334 330 319 312 296 275 238 214 202 196 190 190 188 181 170 164 168
332 336 337 336 336 337 339 338 337 340 342 342 340 337 335 334 334 334 333 332 333 334 332 326 330 337 338 333 319 317 320 325 303 247 197 180 182 183 177 173 168 162 161 164
336 336 335 334 334 336 335 336 342 344 344 343 341 340 339 338 337 336 334 334 331 331 333 332 337 337 334 326 320 321 323 333 346 81 138 156 161 160 159 160 157 156 159 161
334 333 331 330 333 329 332 342 347 347 345 343 344 345 344 340 338 338 337 335 334 332 334 336 335 333 331 329 327 329 336 353 29 82 127 149 150 148 148 147 147 151 154 163
325 327 323 327 328 329 339 345 348 348 345 345 348 349 346 342 340 340 333 330 335 335 339 338 336 336 334 338 343 348 2 17 46 125 149 148 142 140 143 144 146 151 159 166
316 314 316 328 330 338 341 347 347 349 349 350 349 351 351 347 342 338 337 339 342 343 346 345 345 344 351 354 359 1 13 25 33 58 100 119 132 138 140 143 148 154 160 161
294 296 318 322 333 342 348 349 347 349 351 351 349 351 350 349 346 345 344 345 348 347 352 353 354 354 359 0 2 7 13 22 38 67 100 109 119 128 139 147 152 154 153 153
277 299 318 334 353 358 353 349 348 353 357 353 348 352 353 352 351 350 350 351 352 353 355 357 358 359 1 6 8 12 15 16 15 22 54 100 118 127 138 141 137 136 141 147
Height
1478 1469 1465 1466 1468 1469 1476 1483 1491 1491 1495 1498 1500 1502 1502 1502 1500 1498 1496 1493 1491 1489 1487 1485 1483 1481 1478 1476 1473 1471 1468 1466 1463 1461 1459 1456 1454 1452 1450 1448 1446 1444 1443 1442
1482 1470 1466 1469 1473 1477 1483 1486 1489 1491 1494 1496 1499 1500 1500 1499 1497 1494 1490 1488 1487 1485 1483 1481 1478 1476 1473 1471 1468 1466 1463 1460 1458 1456 1453 1451 1448 1446 1444 1442 1440 1439 1437 1436
1489 1473 1471 1485 1491 1491 1492 1491 1494 1496 1497 1496 1498 1499 1498 1496 1493 1488 1486 1485 1483 1481 1478 1475 1473 1470 1467 1464 1462 1459 1457 1454 1452 1449 1447 1444 1442 1440 1438 1437 1435 1434 1432 1431
1487 1482 1497 1501 1493 1495 1497 1494 1493 1493 1496 1499 1499 1497 1496 1493 1488 1486 1484 1481 1478 1476 1472 1469 1466 1463 1460 1457 1455 1452 1449 1447 1445 1443 1440 1438 1436 1434 1432 1431 1430 1428 1427 1426
1492 1493 1495 1498 1499 1500 1502 1499 1499 1501 1501 1500 1497 1494 1491 1488 1486 1484 1480 1477 1473 1470 1466 1462 1459 1456 1452 1449 1447 1444 1441 1439 1437 1435 1433 1431 1429 1427 1426 1424 1423 1421 1420 1419
1492 1500 1502 1506 1500 1500 1500 1498 1504 1503 1501 1498 1495 1490 1486 1486 1483 1479 1475 1471 1467 1463 1459 1455 1451 1448 1444 1441 1438 1436 1433 1431 1429 1427 1425 1423 1421 1420 1418 1417 1416 1415 1414 1413
1496 1500 1496 1503 1501 1501 1506 1507 1504 1503 1500 1497 1493 1491 1485 1480 1476 1473 1468 1464 1460 1455 1451 1447 1443 1440 1436 1432 1429 1427 1424 1422 1420 1418 1416 1414 1413 1411 1411 1410 1409 1408 1407 1406
1502 1504 1508 1505 1504 1508 1510 1506 1504 1501 1498 1494 1490 1485 1480 1475 1470 1466 1461 1457 1452 1447 1443 1439 1435 1431 1426 1423 1420 1418 1415 1412 1410 1408 1407 1406 1404 1403 1402 1402 1401 1401 1400 1399
1507 1509 1506 1506 1507 1508 1507 1504 1502 1498 1494 1490 1484 1479 1474 1469 1464 1459 1454 1449 1445 1440 1435 1430 1427 1423 1418 1414 1411 1407 1404 1402 1400 1398 1397 1396 1395 1394 1394 1394 1394 1394 1394 1393
1505 1503 1504 1506 1506 1506 1505 1503 1499 1495 1491 1486 1480 1474 1468 1463 1457 1452 1447 1442 1437 1432 1426 1421 1417 1413 1409 1404 1400 1397 1393 1390 1389 1387 1386 1386 1385 1385 1386 1386 1386 1387 1388 1388
1504 1504 1506 1505 1506 1505 1502 1499 1495 1491 1487 1481 1475 1468 1463 1457 1451 1446 1441 1435 1430 1424 1418 1412 1407 1402 1398 1394 1389 1385 1382 1380 1378 1377 1376 1375 1375 1376 1376 1377 1379 1380 1382 1383
1509 1509 1509 1507 1505 1503 1499 1496 1491 1486 1481 1476 1471 1464 1458 1452 1447 1441 1434 1428 1422 1416 1409 1403 1397 1391 1387 1383 1379 1374 1371 1369 1368 1367 1366 1366 1366 1367 1368 1369 1371 1373 1375 1378
1510 1509 1508 1506 1503 1500 1497 1492 1488 1482 1477 1471 1465 1460 1454 1448 1442 1435 1428 1422 1414 1407 1400 1393 1387 1381 1376 1371 1368 1364 1361 1359 1358 1357 1357 1357 1358 1359 1360 1362 1363 1366 1368 1371
1508 1508 1506 1503 1501 1497 1494 1489 1484 1478 1473 1468 1462 1456 1450 1443 1436 1429 1422 1414 1406 1398 1390 1383 1377 1370 1365 1361 1357 1353 1351 1349 1348 1348 1348 1349 1350 1352 1353 1355 1357 1358 1362 1365
1507 1506 1504 1501 1498 1494 1490 1485 1479 1474 1468 1463 1458 1452 1445 1438 1430 1422 1414 1406 1397 1389 1382 1375 1368 1361 1356 1351 1347 1344 1341 1340 1339 1339 1340 1341 1342 1344 1346 1349 1351 1353 1356 1359
1505 1503 1501 1498 1495 1491 1486 1481 1476 1470 1465 1459 1453 1447 1441 1434 1425 1417 1408 1399 1390 1381 1374 1366 1360 1354 1348 1343 1339 1336 1333 1332 1332 1332 1333 1334 1336 1338 1341 1343 1346 1349 1352 1355
1502 1500 1498 1495 1492 1488 1484 1479 1474 1468 1462 1456 1450 1443 1436 1428 1419 1410 1401 1393 1384 1376 1368 1361 1354 1348 1342 1337 1333 1330 1328 1326 1326 1327 1328 1329 1331 1333 1336 1338 1341 1345 1347 1350
1500 1498 1496 1493 1489 1485 1481 1476 1471 1466 1460 1454 1447 1440 1432 1424 1415 1405 1396 1386 1378 1370 1363 1356 1349 1343 1337 1332 1329 1326 1324 1323 1322 1323 1324 1325 1327 1329 1332 1335 1338 1341 1344 1348
1497 1495 1493 1491 1487 1483 1478 1474 1469 1463 1457 1451 1444 1437 1429 1421 1412 1402 1392 1383 1374 1366 1358 1352 1346 1340 1334 1330 1327 1324 1322 1321 1321 1321 1321 1323 1325 1327 1330 1333 1336 1339 1342 1346
1495 1493 1490 1488 1484 1481 1476 1471 1466 1461 1455 1449 1442 1434 1426 1417 1408 1399 1389 1381 1373 1365 1357 1350 1344 1339 1334 1330 1326 1324 1322 1321 1320 1320 1321 1322 1323 1326 1328 1331 1334 1338 1341 1345
1492 1490 1488 1485 1482 1478 1474 1469 1464 1459 1453 1447 1440 1432 1424 1415 1406 1397 1387 1378 1371 1363 1356 1349 1344 1339 1334 1330 1326 1324 1322 1321 1320 1320 1320 1321 1323 1325 1328 1331 1334 1338 1341 1345
1489 1487 1485 1482 1479 1475 1472 1467 1462 1457 1451 1445 1438 1431 1422 1413 1404 1395 1388 1380 1371 1364 1356 1350 1344 1339 1335 1331 1328 1325 1324 1322 1322 1321 1322 1323 1324 1326 1328 1331 1334 1338 1342 1346
1487 1485 1483 1480 1477 1473 1469 1465 1461 1455 1450 1443 1437 1430 1422 1414 1405 1396 1387 1379 1371 1364 1357 1352 1346 1341 1337 1333 1330 1327 1326 1325 1324 1324 1324 1325 1326 1328 1330 1333 1337 1340 1344 1348
1484 1482 1480 1478 1475 1471 1468 1463 1459 1454 1449 1443 1437 1430 1422 1413 1404 1397 1390 1381 1373 1366 1359 1354 1349 1344 1339 1336 1333 1331 1329 1328 1327 1327 1327 1328 1329 1331 1334 1337 1340 1344 1347 1351
1481 1480 1478 1475 1473 1470 1466 1462 1457 1453 1448 1442 1436 1430 1422 1415 1407 1398 1390 1383 1375 1368 1362 1356 1352 1347 1343 1340 1338 1335 1334 1332 1331 1331 1331 1332 1333 1335 1338 1341 1344 1347 1351 1355
1478 1477 1475 1473 1471 1468 1465 1461 1457 1452 1447 1442 1436 1429 1422 1415 1408 1400 1393 1385 1378 1372 1366 1360 1356 1352 1348 1345 1342 1340 1338 1337 1337 1336 1336 1337 1338 1340 1342 1345 1348 1351 1355 1359
1475 1474 1473 1471 1469 1467 1464 1460 1457 1453 1448 1443 1437 1430 1424 1416 1409 1402 1395 1388 1382 1376 1370 1365 1361 1357 1353 1350 1348 1346 1344 1343 1342 1342 1342 1343 1343 1345 1347 1350 1353 1356 1359 1363